#timestamp,LO_Frequency,Hit,StdDev 
1616774415.8,286047000.8,N
1616774435.6,286047001.0,N
1616774455.5,286047001.2,N
1616774475.3,286047000.9,N
1616774495.1,286047000.3,N
1616774515.9,286047000.3,N
1616774535.7,286047000.0,N
1616774555.6,286047000.6,N
1616774575.4,286047000.3,N
1616774595.2,286047000.4,N
1616774615.1,286047000.9,N
1616774616.0,286047000.9,N
1616774635.8,286047000.5,N
1616774655.6,286047000.4,N
1616774675.5,286047000.7,N
1616774695.3,286047000.7,N
1616774715.2,286047000.5,N
1616774735.9,286047000.5,N
1616774755.7,286047000.6,N
1616774775.6,286047000.6,N
1616774795.4,286047000.3,N
1616774815.2,286047000.3,N
1616774835.1,286047000.9,N
1616774836.0,286047000.9,N
1616774855.8,286046999.9,N
1616774875.7,286047000.9,N
1616774895.5,286047000.0,N
1616774915.3,286047000.3,N
1616774935.2,286046999.8,N
1616774955.0,286047000.2,N
1616774955.9,286047000.2,N
1616774975.8,286047000.2,N
1616774995.6,286047000.0,N
1616775015.4,286047000.0,N
1616775035.3,286047000.0,N
1616775055.1,286047000.0,N
1616775075.8,286046999.8,N
1616775095.7,286047000.1,N
1616775115.5,286047000.5,N
1616775135.4,286047000.7,N
1616775155.2,286047000.7,N
1616775175.0,286047000.9,N
1616775175.9,286047000.9,N
1616775195.8,286047000.8,N
1616775215.6,286047000.8,N
1616775235.4,286047000.5,N
1616775255.3,286047000.0,N
1616775275.1,286046999.9,N
1616775295.9,286047000.7,N
1616775315.7,286047001.0,N
1616775335.5,286047000.3,N
1616775355.4,286046999.7,N
1616775375.2,286047002.8,Y
1616775395.1,286047000.3,P
1616775396.0,286047000.3,P
1616775415.8,286047001.0,P
1616775435.6,286047000.2,N
1616775455.5,286047000.1,N
1616775475.3,286047001.0,Y
1616775495.1,286046998.2,P
1616775515.9,286047000.7,N
1616775535.7,286047000.6,N
1616775555.6,286047000.3,N
1616775575.4,286046998.5,N
1616775595.2,286047000.8,N
1616775615.1,286047000.9,N
1616775616.0,286047000.9,N
1616775635.8,286047000.5,N
1616775655.7,286046998.1,N
1616775675.5,286047001.1,N
1616775695.3,286046998.1,N
1616775715.2,286047001.2,N
1616775735.9,286047001.1,N
1616775755.7,286047000.7,N
1616775775.6,286047001.2,N
1616775795.4,286046998.5,N
1616775815.3,286047001.2,N
1616775835.1,286047001.1,N
1616775836.0,286047001.1,N
1616775855.8,286047001.0,N
1616775875.7,286047000.7,N
1616775895.5,286047001.2,N
1616775915.3,286046998.1,N
1616775935.2,286046998.5,N
1616775955.0,286046998.5,N
1616775955.9,286046998.5,N
1616775975.8,286046998.1,N
1616775995.6,286047000.8,N
1616776015.4,286046998.3,N
1616776035.3,286046998.6,N
1616776055.1,286047000.7,N
1616776075.8,286047002.8,N
1616776095.7,286047001.5,N
1616776115.5,286047002.2,N
1616776135.4,286047003.8,N
1616776155.2,286047005.9,Y
1616776175.0,286047005.7,P
1616776175.9,286047005.7,N
1616776195.8,286047005.8,N
1616776215.6,286047003.0,N
1616776235.4,286047005.6,N
1616776255.3,286047003.3,N
1616776275.1,286047004.0,N
1616776295.9,286047004.2,N
1616776315.7,286047004.0,N
1616776335.5,286047003.9,N
1616776355.4,286047003.9,N
1616776405.2,286047004.2,E
1616776415.2,286047000.3,N
1616776435.0,286046999.4,P
1616776435.9,286046999.4,N
1616776455.7,286046999.4,N
1616776475.6,286046999.0,N
1616776495.4,286046999.3,N
1616776515.3,286046999.3,N
1616776535.1,286046999.0,N
1616776536.0,286046999.0,N
1616776555.8,286046998.9,N
1616776575.7,286046999.0,N
1616776595.5,286046998.9,Y
1616776615.3,286046998.2,P
1616776635.2,286046998.4,P
1616776655.0,286046998.4,P
1616776655.9,286046998.4,Y
1616776675.8,286047000.0,P
1616776695.6,286047000.3,N
1616776715.4,286047000.0,N
1616776735.3,286047000.0,N
1616776755.1,286047000.2,N
1616776775.9,286047000.2,N
1616776795.7,286047000.2,N
1616776815.5,286046999.9,N
1616776835.4,286047000.1,N
1616776855.2,286047000.2,N
1616776875.0,286046999.7,N
1616776875.9,286046999.7,N
1616776895.8,286046999.7,N
1616776915.6,286047002.5,Y
1616776935.5,286047002.4,P
1616776955.3,286046999.8,N
1616776975.1,286047002.7,N
1616776995.9,286047002.8,N
1616777015.7,286046999.7,N
1616777035.5,286047002.4,N
1616777055.4,286047002.7,N
1616777075.2,286046999.9,N
1616777095.1,286047000.2,N
1616777096.0,286047000.2,N
1616777115.8,286047002.3,N
1616777135.6,286047002.6,N
1616777155.5,286047002.7,N
1616777175.3,286047002.7,N
1616777195.1,286047002.8,N
1616777215.9,286047002.1,N
1616777235.7,286047002.5,N
1616777255.6,286047002.6,N
1616777275.4,286047002.3,N
1616777295.2,286047002.8,N
1616777315.1,286047002.7,N
1616777316.0,286047002.7,N
1616777335.8,286047002.4,N
1616777355.7,286047002.1,N
1616777375.5,286047002.3,N
1616777395.3,286047002.3,N
1616777415.2,286047002.3,N
1616777435.9,286047002.4,N
1616777455.7,286047002.4,N
1616777475.6,286047002.4,N
1616777495.4,286047002.6,N
1616777545.3,286047002.2,E
1616777555.2,286047000.9,N
1616777575.0,286046998.2,P
1616777575.9,286046998.2,N
1616777595.8,286046998.5,N
1616777615.6,286047000.8,N
1616777635.5,286047000.8,N
1616777655.3,286046998.1,N
1616777675.1,286046998.2,N
1616777695.9,286046998.3,N
1616777715.7,286046998.7,N
1616777735.6,286046999.0,N
1616777755.4,286046998.4,N
1616777775.2,286046998.7,N
1616777795.1,286046998.6,N
1616777796.0,286046998.6,N
1616777815.8,286046998.4,N
1616777835.6,286046998.1,N
1616777855.5,286046998.5,N
1616777875.3,286046998.5,N
1616777895.2,286046998.7,N
1616777915.9,286046998.9,N
1616777935.7,286046998.8,N
1616777955.6,286046998.4,N
1616777975.4,286046999.1,N
1616777995.3,286046999.1,N
